Preview of NWS' New Version of Forecast
This preview is not operational and should not be used for support decisions.

Regional Weather Roundup (RWR)

Issued by National Weather Service (NWS)

                            
000
ASUS43 KTOP 201908
RWRKS 

WEATHER ROUNDUP FOR KANSAS
NATIONAL WEATHER SERVICE GOODLAND KS
100 PM CST WED FEB 20 2019

NOTE:  "FAIR" INDICATES FEW OR NO CLOUDS BELOW 12,000 FEET WITH NO
SIGNIFICANT WEATHER AND/OR OBSTRUCTIONS TO VISIBILITY.

KSZ001>006-013>018-027>032-041>047-202000-
NORTHWEST KANSAS
  
CITY           SKY/WX    TMP DP  RH WIND       PRES   REMARKS
GOODLAND       SUNNY     29  12  49 W18G28    29.69R WCI  16          
HAYS           SUNNY     34  18  52 W15       29.78F WCI  24          
HILL CITY      SUNNY     34  17  50 W14       29.75S WCI  25          
RUSSELL        SUNNY     31  23  72 W15       29.76F WCI  20          
$$

KSZ061>065-074>080-084>089-202000-
SOUTHWEST KANSAS
  
CITY           SKY/WX    TMP DP  RH WIND       PRES   REMARKS
DODGE CITY     SUNNY     38  14  37 NW14      29.77F WCI  30          
ELKHART        SUNNY     42  14  32 W5        29.77R                  
GARDEN CITY    SUNNY     34  11  38 W9        29.77S                  
GREAT BEND     SUNNY     37  22  54 W17G24    29.80S WCI  27          
LIBERAL        SUNNY     38  16  40 CALM      29.81S                  
PRATT          SUNNY     36  24  62 W6        29.82S                  
$$

KSZ066>073-081>083-090>101-202000-
SOUTHEAST KANSAS
  
CITY           SKY/WX    TMP DP  RH WIND       PRES   REMARKS
CHANUTE        CLOUDY    37  28  70 SW9       29.86S                  
COFFEYVILLE    CLOUDY    40  32  73 SW9       29.87S                  
HUTCHINSON     MOSUNNY   33  26  75 W10       29.82R WCI  25          
MEDICINE LODGE   N/A     37  26  64 NW8       29.84F                  
NEWTON         PTSUNNY   33  27  78 SW10      29.82F WCI  25          
PARSONS        CLOUDY    35  31  85 SW6       29.88S                  
WICHITA INTL   PTSUNNY   32  28  85 SW8       29.84S                  
WICHITA JABRA  MOSUNNY   34  27  75 W8        29.83F                  
WICHITA MCCONL CLOUDY    32  27  81 W8        29.84                   
WINFIELD       CLOUDY    31  26  82 SW10      29.88S HAZE    WCI  22  
$$

KSZ007>012-019>026-033>040-048>060-102>105-202000-
NORTHEAST KANSAS
  
CITY           SKY/WX    TMP DP  RH WIND       PRES   REMARKS
CONCORDIA      SUNNY     28  19  69 W14       29.77F WCI  17          
EMPORIA        MOSUNNY   35  27  72 W10G22    29.82R WCI  27          
LAWRENCE       CLOUDY    35  24  64 W18       29.82R WCI  24          
MANHATTAN      SUNNY     35  23  61 W14G23    29.80S WCI  26          
MARYSVILLE     LGT RAIN  30  21  69 W14       29.76S WCI  20          
OLATHE IND     MOSUNNY   35  26  69 W18G28    29.81R WCI  24          
OLATHE EXE     PTSUNNY   34  25  69 SW14G23   29.80R WCI  25          
SALINA         SUNNY     32  23  69 SW13      29.82S WCI  22          
TOPEKA BILLARD CLOUDY    36  24  62 W18G28    29.81R WCI  26          
TOPEKA FORBES  PTSUNNY   34  24  67 W18G30    29.80R WCI  23          
$$